Time,TemperatureF,DewpointF,PressureIn,WindDirection,WindDirectionDegrees,WindSpeedMPH,WindSpeedGustMPH,Humidity,HourlyPrecipIn,Conditions,Clouds,dailyrainin,SoftwareType,DateUTC
2013-06-04 00:02:00,47.0,44.0,-100.00,West,280,5.0,6.0,90,-99.99,,,-99.99,,2013-06-04 06:02:00,
2013-06-04 00:12:00,47.0,45.0,-100.00,WNW,285,6.0,6.0,92,-99.99,,,-99.99,,2013-06-04 06:12:00,
2013-06-04 00:22:00,47.0,45.0,-100.00,WNW,285,6.0,6.0,92,-99.99,,,-99.99,,2013-06-04 06:22:00,
2013-06-04 00:32:00,47.0,45.0,-100.00,WNW,290,6.0,7.0,93,-99.99,,,-99.99,,2013-06-04 06:32:00,
2013-06-04 00:42:00,47.0,45.0,-100.00,WNW,290,6.0,7.0,93,-99.99,,,-99.99,,2013-06-04 06:42:00,
2013-06-04 00:52:00,47.0,45.0,-100.00,WNW,285,8.0,9.0,93,-99.99,,,-99.99,,2013-06-04 06:52:00,
2013-06-04 01:02:00,47.0,45.0,-100.00,WNW,285,8.0,9.0,93,-99.99,,,-99.99,,2013-06-04 07:02:00,
2013-06-04 01:12:00,47.0,45.0,-100.00,West,270,10.0,11.0,94,-99.99,,,-99.99,,2013-06-04 07:12:00,
2013-06-04 01:22:00,47.0,45.0,-100.00,West,270,10.0,11.0,94,-99.99,,,-99.99,,2013-06-04 07:22:00,
2013-06-04 01:32:00,47.0,45.0,-100.00,WNW,285,10.0,11.0,94,-99.99,,,-99.99,,2013-06-04 07:32:00,
2013-06-04 01:42:00,47.0,45.0,-100.00,WNW,285,10.0,11.0,94,-99.99,,,-99.99,,2013-06-04 07:42:00,
2013-06-04 01:52:00,47.0,45.0,-100.00,NW,320,13.0,15.0,95,-99.99,,,-99.99,,2013-06-04 07:52:00,
2013-06-04 02:02:00,47.0,45.0,-100.00,NW,320,13.0,15.0,95,-99.99,,,-99.99,,2013-06-04 08:02:00,
2013-06-04 02:12:00,46.0,45.0,-100.00,NW,320,16.0,19.0,95,-99.99,,,-99.99,,2013-06-04 08:12:00,
2013-06-04 02:22:00,46.0,45.0,-100.00,NW,320,16.0,19.0,95,-99.99,,,-99.99,,2013-06-04 08:22:00,
2013-06-04 02:32:00,46.0,44.0,-100.00,NNW,330,16.0,21.0,95,-99.99,,,-99.99,,2013-06-04 08:32:00,
2013-06-04 02:42:00,46.0,44.0,-100.00,NNW,330,16.0,21.0,95,-99.99,,,-99.99,,2013-06-04 08:42:00,
2013-06-04 02:52:00,46.0,44.0,-100.00,NW,320,17.0,20.0,95,-99.99,,,-99.99,,2013-06-04 08:52:00,
2013-06-04 03:02:00,46.0,44.0,-100.00,NW,320,17.0,20.0,95,-99.99,,,-99.99,,2013-06-04 09:02:00,
2013-06-04 03:12:00,45.0,44.0,-100.00,NW,315,16.0,18.0,95,-99.99,,,-99.99,,2013-06-04 09:12:00,
2013-06-04 03:22:00,45.0,44.0,-100.00,NW,315,16.0,18.0,95,-99.99,,,-99.99,,2013-06-04 09:22:00,
2013-06-04 03:33:00,45.0,44.0,-100.00,NW,315,15.0,17.0,95,-99.99,,,-99.99,,2013-06-04 09:33:00,
2013-06-04 03:43:00,45.0,44.0,-100.00,NW,315,15.0,17.0,95,-99.99,,,-99.99,,2013-06-04 09:43:00,
2013-06-04 03:53:00,45.0,44.0,-100.00,NW,315,14.0,17.0,95,-99.99,,,-99.99,,2013-06-04 09:53:00,
2013-06-04 04:02:00,45.0,44.0,-100.00,NW,315,14.0,17.0,95,-99.99,,,-99.99,,2013-06-04 10:02:00,
2013-06-04 04:12:00,45.0,44.0,-100.00,NW,315,17.0,18.0,95,-99.99,,,-99.99,,2013-06-04 10:12:00,
2013-06-04 04:23:00,45.0,44.0,-100.00,NW,315,17.0,18.0,95,-99.99,,,-99.99,,2013-06-04 10:23:00,
2013-06-04 04:33:00,45.0,44.0,-100.00,NW,310,14.0,16.0,95,-99.99,,,-99.99,,2013-06-04 10:33:00,
2013-06-04 04:42:00,45.0,44.0,-100.00,NW,310,14.0,16.0,95,-99.99,,,-99.99,,2013-06-04 10:42:00,
2013-06-04 04:52:00,45.0,44.0,-100.00,NW,315,15.0,17.0,95,-99.99,,,-99.99,,2013-06-04 10:52:00,
2013-06-04 05:02:00,45.0,44.0,-100.00,NW,315,15.0,17.0,95,-99.99,,,-99.99,,2013-06-04 11:02:00,
2013-06-04 05:12:00,45.0,43.0,-100.00,NW,320,15.0,17.0,95,-99.99,,,-99.99,,2013-06-04 11:12:00,
2013-06-04 05:22:00,45.0,43.0,-100.00,NW,320,15.0,17.0,95,-99.99,,,-99.99,,2013-06-04 11:22:00,
2013-06-04 05:32:00,45.0,43.0,-100.00,NW,320,16.0,17.0,95,-99.99,,,0.01,,2013-06-04 11:32:00,
2013-06-04 05:42:00,45.0,43.0,-100.00,NW,320,16.0,17.0,95,-99.99,,,0.01,,2013-06-04 11:42:00,
2013-06-04 05:52:00,44.0,43.0,-100.00,NW,315,15.0,18.0,95,-99.99,,,0.01,,2013-06-04 11:52:00,
2013-06-04 06:02:00,44.0,43.0,-100.00,NW,315,15.0,18.0,95,-99.99,,,0.01,,2013-06-04 12:02:00,
2013-06-04 06:12:00,44.0,43.0,-100.00,NW,315,17.0,19.0,95,-99.99,,,0.01,,2013-06-04 12:12:00,
2013-06-04 06:22:00,44.0,43.0,-100.00,NW,315,17.0,19.0,95,-99.99,,,0.01,,2013-06-04 12:22:00,
2013-06-04 06:32:00,44.0,43.0,-100.00,NW,310,18.0,21.0,95,-99.99,,,0.01,,2013-06-04 12:32:00,
2013-06-04 06:42:00,44.0,43.0,-100.00,NW,310,18.0,21.0,95,-99.99,,,0.01,,2013-06-04 12:42:00,
2013-06-04 06:52:00,44.0,42.0,-100.00,NW,325,19.0,22.0,95,-99.99,,,0.01,,2013-06-04 12:52:00,
2013-06-04 07:02:00,44.0,42.0,-100.00,NW,325,19.0,22.0,95,-99.99,,,0.01,,2013-06-04 13:02:00,
2013-06-04 07:12:00,44.0,42.0,-100.00,NW,320,17.0,19.0,95,-99.99,,,0.01,,2013-06-04 13:12:00,
2013-06-04 07:22:00,44.0,42.0,-100.00,NW,320,17.0,19.0,95,-99.99,,,0.01,,2013-06-04 13:22:00,
2013-06-04 07:32:00,43.0,42.0,-100.00,NW,320,17.0,19.0,95,-99.99,,,0.01,,2013-06-04 13:32:00,
2013-06-04 07:42:00,43.0,42.0,-100.00,NW,320,17.0,19.0,95,-99.99,,,0.01,,2013-06-04 13:42:00,
2013-06-04 07:52:00,44.0,42.0,-100.00,NW,325,20.0,23.0,95,-99.99,,,0.01,,2013-06-04 13:52:00,
2013-06-04 08:02:00,44.0,42.0,-100.00,NW,325,20.0,23.0,95,-99.99,,,0.01,,2013-06-04 14:02:00,
2013-06-04 08:12:00,43.0,42.0,-100.00,NW,315,19.0,22.0,95,-99.99,,,0.00,,2013-06-04 14:12:00,
2013-06-04 08:22:00,43.0,42.0,-100.00,NW,315,19.0,22.0,95,-99.99,,,0.00,,2013-06-04 14:22:00,
2013-06-04 08:32:00,43.0,42.0,-100.00,NW,310,16.0,20.0,95,-99.99,,,-99.99,,2013-06-04 14:32:00,
2013-06-04 08:42:00,43.0,42.0,-100.00,NW,310,16.0,20.0,95,-99.99,,,-99.99,,2013-06-04 14:42:00,
2013-06-04 08:52:00,43.0,42.0,-100.00,NW,310,18.0,20.0,95,-99.99,,,-99.99,,2013-06-04 14:52:00,
2013-06-04 09:02:00,43.0,42.0,-100.00,NW,310,18.0,20.0,95,-99.99,,,-99.99,,2013-06-04 15:02:00,
2013-06-04 09:12:00,43.0,42.0,-100.00,NW,315,16.0,19.0,95,-99.99,,,-99.99,,2013-06-04 15:12:00,
2013-06-04 09:22:00,43.0,42.0,-100.00,NW,315,16.0,19.0,95,-99.99,,,-99.99,,2013-06-04 15:22:00,
2013-06-04 09:33:00,44.0,42.0,-100.00,NW,315,18.0,21.0,95,-99.99,,,-99.99,,2013-06-04 15:33:00,
2013-06-04 09:42:00,44.0,42.0,-100.00,NW,315,18.0,21.0,95,-99.99,,,-99.99,,2013-06-04 15:42:00,
2013-06-04 09:53:00,43.0,42.0,-100.00,NW,325,18.0,22.0,95,-99.99,,,-99.99,,2013-06-04 15:53:00,
2013-06-04 10:03:00,43.0,42.0,-100.00,NW,325,18.0,22.0,95,-99.99,,,-99.99,,2013-06-04 16:03:00,
2013-06-04 10:12:00,43.0,42.0,-100.00,NW,325,19.0,22.0,95,-99.99,,,-99.99,,2013-06-04 16:12:00,
2013-06-04 10:23:00,43.0,42.0,-100.00,NW,325,19.0,22.0,95,-99.99,,,-99.99,,2013-06-04 16:23:00,
2013-06-04 10:33:00,44.0,42.0,-100.00,NW,310,19.0,21.0,95,-99.99,,,-99.99,,2013-06-04 16:33:00,
2013-06-04 10:42:00,44.0,42.0,-100.00,NW,310,19.0,21.0,95,-99.99,,,-99.99,,2013-06-04 16:42:00,
2013-06-04 10:52:00,44.0,42.0,-100.00,NW,320,17.0,20.0,95,-99.99,,,-99.99,,2013-06-04 16:52:00,
2013-06-04 11:02:00,44.0,42.0,-100.00,NW,320,17.0,20.0,95,-99.99,,,-99.99,,2013-06-04 17:02:00,
2013-06-04 11:12:00,43.0,42.0,-100.00,NW,325,19.0,22.0,95,-99.99,,,-99.99,,2013-06-04 17:12:00,
2013-06-04 11:23:00,43.0,42.0,-100.00,NW,325,19.0,22.0,95,-99.99,,,-99.99,,2013-06-04 17:23:00,
2013-06-04 11:33:00,44.0,42.0,-100.00,NW,310,17.0,20.0,94,-99.99,,,-99.99,,2013-06-04 17:33:00,
2013-06-04 11:42:00,44.0,42.0,-100.00,NW,310,17.0,20.0,94,-99.99,,,-99.99,,2013-06-04 17:42:00,
2013-06-04 11:52:00,44.0,42.0,-100.00,NW,310,24.0,25.0,94,-99.99,,,-99.99,,2013-06-04 17:52:00,
2013-06-04 12:02:00,44.0,42.0,-100.00,NW,310,24.0,25.0,94,-99.99,,,-99.99,,2013-06-04 18:02:00,
2013-06-04 12:12:00,44.0,43.0,-100.00,NW,310,19.0,22.0,94,-99.99,,,-99.99,,2013-06-04 18:12:00,
2013-06-04 12:22:00,44.0,43.0,-100.00,NW,310,19.0,22.0,94,-99.99,,,-99.99,,2013-06-04 18:22:00,
2013-06-04 12:32:00,44.0,43.0,-100.00,NW,310,19.0,22.0,94,-99.99,,,-99.99,,2013-06-04 18:32:00,
2013-06-04 12:42:00,44.0,43.0,-100.00,NW,310,19.0,22.0,94,-99.99,,,-99.99,,2013-06-04 18:42:00,
2013-06-04 12:52:00,44.0,43.0,-100.00,NW,305,20.0,23.0,94,-99.99,,,-99.99,,2013-06-04 18:52:00,
2013-06-04 13:02:00,44.0,43.0,-100.00,NW,305,20.0,23.0,94,-99.99,,,-99.99,,2013-06-04 19:02:00,
2013-06-04 13:12:00,45.0,43.0,-100.00,NW,310,19.0,21.0,94,-99.99,,,-99.99,,2013-06-04 19:12:00,
2013-06-04 13:22:00,45.0,43.0,-100.00,NW,310,19.0,21.0,94,-99.99,,,-99.99,,2013-06-04 19:22:00,
2013-06-04 13:32:00,45.0,43.0,-100.00,NW,310,18.0,21.0,94,-99.99,,,-99.99,,2013-06-04 19:32:00,
2013-06-04 13:42:00,45.0,43.0,-100.00,NW,310,18.0,21.0,94,-99.99,,,-99.99,,2013-06-04 19:42:00,
2013-06-04 13:52:00,46.0,44.0,-100.00,NW,310,22.0,24.0,94,-99.99,,,-99.99,,2013-06-04 19:52:00,
2013-06-04 14:03:00,46.0,44.0,-100.00,NW,310,22.0,24.0,94,-99.99,,,-99.99,,2013-06-04 20:03:00,
2013-06-04 14:12:00,46.0,44.0,-100.00,WNW,300,20.0,23.0,94,-99.99,,,-99.99,,2013-06-04 20:12:00,
2013-06-04 14:22:00,46.0,44.0,-100.00,WNW,300,20.0,23.0,94,-99.99,,,-99.99,,2013-06-04 20:22:00,
2013-06-04 14:32:00,46.0,44.0,-100.00,NW,310,19.0,22.0,94,-99.99,,,-99.99,,2013-06-04 20:32:00,
2013-06-04 14:42:00,46.0,44.0,-100.00,NW,310,19.0,22.0,94,-99.99,,,-99.99,,2013-06-04 20:42:00,
2013-06-04 14:52:00,46.0,44.0,-100.00,NW,310,19.0,22.0,93,-99.99,,,-99.99,,2013-06-04 20:52:00,
2013-06-04 15:02:00,46.0,44.0,-100.00,NW,310,19.0,22.0,93,-99.99,,,-99.99,,2013-06-04 21:02:00,
2013-06-04 15:12:00,47.0,45.0,-100.00,NW,310,18.0,23.0,91,-99.99,,,-99.99,,2013-06-04 21:12:00,
2013-06-04 15:22:00,47.0,45.0,-100.00,NW,310,18.0,23.0,91,-99.99,,,-99.99,,2013-06-04 21:22:00,
2013-06-04 15:33:00,47.0,45.0,-100.00,NW,310,18.0,23.0,91,-99.99,,,-99.99,,2013-06-04 21:33:00,
2013-06-04 15:42:00,47.0,45.0,-100.00,NW,310,18.0,23.0,91,-99.99,,,-99.99,,2013-06-04 21:42:00,
2013-06-04 15:53:00,48.0,43.0,-100.00,NW,315,21.0,24.0,85,-99.99,,,-99.99,,2013-06-04 21:53:00,
2013-06-04 16:02:00,48.0,43.0,-100.00,NW,315,21.0,24.0,85,-99.99,,,-99.99,,2013-06-04 22:02:00,
2013-06-04 16:13:00,48.0,42.0,-100.00,NW,305,19.0,21.0,81,-99.99,,,-99.99,,2013-06-04 22:13:00,
2013-06-04 16:22:00,48.0,42.0,-100.00,NW,305,19.0,21.0,81,-99.99,,,-99.99,,2013-06-04 22:22:00,
2013-06-04 16:32:00,48.0,42.0,-100.00,NW,305,22.0,26.0,80,-99.99,,,-99.99,,2013-06-04 22:32:00,
2013-06-04 16:42:00,48.0,42.0,-100.00,NW,305,22.0,26.0,80,-99.99,,,-99.99,,2013-06-04 22:42:00,
2013-06-04 16:52:00,48.0,42.0,-100.00,NW,310,19.0,24.0,80,-99.99,,,-99.99,,2013-06-04 22:52:00,
2013-06-04 17:02:00,48.0,42.0,-100.00,NW,310,19.0,24.0,80,-99.99,,,-99.99,,2013-06-04 23:02:00,
2013-06-04 17:12:00,48.0,41.0,-100.00,NW,310,19.0,22.0,78,-99.99,,,-99.99,,2013-06-04 23:12:00,
2013-06-04 17:22:00,48.0,41.0,-100.00,NW,310,19.0,22.0,78,-99.99,,,-99.99,,2013-06-04 23:22:00,
2013-06-04 17:32:00,48.0,41.0,-100.00,NW,310,17.0,20.0,76,-99.99,,,-99.99,,2013-06-04 23:32:00,
2013-06-04 17:42:00,48.0,41.0,-100.00,NW,310,17.0,20.0,76,-99.99,,,-99.99,,2013-06-04 23:42:00,
2013-06-04 17:52:00,49.0,41.0,-100.00,NW,305,16.0,18.0,73,-99.99,,,-99.99,,2013-06-04 23:52:00,
2013-06-04 18:02:00,49.0,41.0,-100.00,NW,305,16.0,18.0,73,-99.99,,,-99.99,,2013-06-05 00:02:00,
2013-06-04 18:12:00,49.0,40.0,-100.00,WNW,300,16.0,19.0,71,-99.99,,,-99.99,,2013-06-05 00:12:00,
2013-06-04 18:22:00,49.0,40.0,-100.00,WNW,300,16.0,19.0,71,-99.99,,,-99.99,,2013-06-05 00:22:00,
2013-06-04 18:32:00,49.0,40.0,-100.00,NW,310,11.0,13.0,72,-99.99,,,0.00,,2013-06-05 00:32:00,
2013-06-04 18:42:00,49.0,40.0,-100.00,NW,310,11.0,13.0,72,-99.99,,,0.00,,2013-06-05 00:42:00,
2013-06-04 18:52:00,49.0,40.0,-100.00,WNW,295,16.0,18.0,70,-99.99,,,0.00,,2013-06-05 00:52:00,
2013-06-04 19:02:00,49.0,40.0,-100.00,WNW,295,16.0,18.0,70,-99.99,,,0.00,,2013-06-05 01:02:00,
2013-06-04 19:12:00,50.0,40.0,-100.00,WNW,285,13.0,15.0,69,-99.99,,,0.00,,2013-06-05 01:12:00,
2013-06-04 19:22:00,50.0,40.0,-100.00,WNW,285,13.0,15.0,69,-99.99,,,0.00,,2013-06-05 01:22:00,
2013-06-04 19:32:00,50.0,39.0,-100.00,WNW,300,14.0,15.0,67,-99.99,,,0.00,,2013-06-05 01:32:00,
2013-06-04 19:42:00,50.0,39.0,-100.00,WNW,300,14.0,15.0,67,-99.99,,,0.00,,2013-06-05 01:42:00,
2013-06-04 19:52:00,50.0,39.0,-100.00,WNW,300,12.0,14.0,68,-99.99,,,0.00,,2013-06-05 01:52:00,
2013-06-04 20:02:00,50.0,39.0,-100.00,WNW,300,12.0,14.0,68,-99.99,,,0.00,,2013-06-05 02:02:00,
2013-06-04 20:12:00,49.0,40.0,-100.00,WNW,285,8.0,9.0,71,-99.99,,,0.00,,2013-06-05 02:12:00,
2013-06-04 20:22:00,49.0,40.0,-100.00,WNW,285,8.0,9.0,71,-99.99,,,0.00,,2013-06-05 02:22:00,
2013-06-04 20:32:00,49.0,41.0,-100.00,WNW,295,7.0,8.0,73,-99.99,,,0.00,,2013-06-05 02:32:00,
2013-06-04 20:42:00,49.0,41.0,-100.00,WNW,295,7.0,8.0,73,-99.99,,,0.00,,2013-06-05 02:42:00,
2013-06-04 20:52:00,49.0,42.0,-100.00,NW,320,4.0,4.0,76,-99.99,,,0.00,,2013-06-05 02:52:00,
2013-06-04 21:02:00,49.0,42.0,-100.00,NW,320,4.0,4.0,76,-99.99,,,0.00,,2013-06-05 03:02:00,
2013-06-04 21:12:00,49.0,42.0,-100.00,North,350,8.0,9.0,77,-99.99,,,0.00,,2013-06-05 03:12:00,
2013-06-04 21:22:00,49.0,42.0,-100.00,North,350,8.0,9.0,77,-99.99,,,0.00,,2013-06-05 03:22:00,
2013-06-04 21:33:00,48.0,41.0,-100.00,NNW,345,7.0,8.0,75,-99.99,,,0.00,,2013-06-05 03:33:00,
2013-06-04 21:43:00,48.0,41.0,-100.00,NNW,345,7.0,8.0,75,-99.99,,,0.00,,2013-06-05 03:43:00,
2013-06-04 21:53:00,48.0,41.0,-100.00,NNW,330,3.0,4.0,76,-99.99,,,0.00,,2013-06-05 03:53:00,
2013-06-04 22:02:00,48.0,41.0,-100.00,NNW,330,3.0,4.0,76,-99.99,,,0.00,,2013-06-05 04:02:00,
2013-06-04 22:13:00,48.0,41.0,-100.00,NW,320,3.0,3.0,76,-99.99,,,0.00,,2013-06-05 04:13:00,
2013-06-04 22:23:00,48.0,41.0,-100.00,NW,320,3.0,3.0,76,-99.99,,,0.00,,2013-06-05 04:23:00,
2013-06-04 22:33:00,48.0,41.0,-100.00,WSW,245,3.0,3.0,78,-99.99,,,0.00,,2013-06-05 04:33:00,
2013-06-04 22:42:00,48.0,41.0,-100.00,WSW,245,3.0,3.0,78,-99.99,,,0.00,,2013-06-05 04:42:00,
2013-06-04 22:53:00,47.0,41.0,-100.00,West,260,6.0,6.0,78,-99.99,,,0.00,,2013-06-05 04:53:00,
2013-06-04 23:02:00,47.0,41.0,-100.00,West,260,6.0,6.0,78,-99.99,,,0.00,,2013-06-05 05:02:00,
2013-06-04 23:12:00,48.0,41.0,-100.00,West,260,6.0,6.0,75,-99.99,,,0.00,,2013-06-05 05:12:00,
2013-06-04 23:22:00,48.0,41.0,-100.00,West,260,6.0,6.0,75,-99.99,,,0.00,,2013-06-05 05:22:00,
2013-06-04 23:32:00,48.0,41.0,-100.00,WSW,250,6.0,7.0,76,-99.99,,,0.00,,2013-06-05 05:32:00,
2013-06-04 23:42:00,48.0,41.0,-100.00,WSW,250,6.0,7.0,76,-99.99,,,0.00,,2013-06-05 05:42:00,
2013-06-04 23:52:00,48.0,41.0,-100.00,WSW,240,5.0,6.0,77,-99.99,,,0.00,,2013-06-05 05:52:00,